Weather History for Hinckley, MN

Change the Weather History Date:

Wednesday, October 9, 2013

  Actual Average (KJMR) Record (KJMR)
Temperature  
Mean Temperature 60 °F -  
Max Temperature 71 °F 56 °F 81 °F (1938)
Min Temperature 50 °F 34 °F 15 °F (2000)
Degree Days  
Heating Degree Days 4    
Growing Degree Days 10 (Base 50)    
Moisture  
Dew Point 49 °F    
Average Humidity 69    
Maximum Humidity 100    
Minimum Humidity 50    
Precipitation  
Precipitation 0.00 in - - ()
Sea Level Pressure  
Sea Level Pressure 29.99 in    
Wind  
Wind Speed 7 mph (South)    
Max Wind Speed 15 mph    
Max Gust Speed 22 mph    
Visibility 10 miles    
Events      
Averages and records for this station are not official NWS values.
T = Trace of Precipitation, MM = Missing Value Source: NWS Daily Summary

Daily Weather History Graph

Daily Weather History Graph

Search for Another Location

Airport:

Trip Planner

Search our weather history database for the weather conditions in past years. The results will help you decide how hot, cold, wet, or windy it might be!

Date:

Astronomy

Oct. 09, 2013 Rise Set
Actual Time 7:20 AM CDT 6:35 PM CDT
Civil Twilight 6:50 AM CDT 7:05 PM CDT
Nautical Twilight 6:16 AM CDT 7:40 PM CDT
Astronomical Twilight 5:41 AM CDT 8:15 PM CDT
Moon 12:29 PM CDT (10/9) 9:58 PM CDT (10/9)
Length of Visible Light 12h 14m
Length of Day
11h 15m
Waxing Crescent, 25% of the Moon is Illuminated
Oct 9
Waxing Crescent
Oct 11
First Quarter
Oct 18
Full
Oct 26
Last Quarter
Nov 3
New

Hourly Weather History & Observations

Time (CDT) Temp. Dew Point Humidity Pressure Visibility Wind Dir Wind Speed Gust Speed Precip Events Conditions
12:16 AM 60.8 °F 46.4 °F 59% 29.90 in 10.0 mi South 9.2 mph - N/A   Clear
12:37 AM 60.8 °F 46.4 °F 59% 29.91 in 10.0 mi South 8.1 mph - N/A   Clear
12:56 AM 60.8 °F 46.4 °F 59% 29.91 in 10.0 mi South 9.2 mph - N/A   Clear
1:17 AM 59.0 °F 46.4 °F 63% 29.91 in 10.0 mi South 6.9 mph - N/A   Clear
1:37 AM 59.0 °F 46.4 °F 63% 29.92 in 10.0 mi South 8.1 mph - N/A   Clear
1:56 AM 59.0 °F 46.4 °F 63% 29.93 in 10.0 mi South 6.9 mph - N/A   Clear
2:17 AM 57.2 °F 46.4 °F 67% 29.93 in 10.0 mi South 8.1 mph - N/A   Clear
2:37 AM 57.2 °F 46.4 °F 67% 29.93 in 10.0 mi South 6.9 mph - N/A   Clear
2:56 AM 57.2 °F 46.4 °F 67% 29.93 in 10.0 mi South 8.1 mph - N/A   Clear
3:17 AM 55.4 °F 46.4 °F 72% 29.94 in 10.0 mi South 6.9 mph - N/A   Clear
3:36 AM 55.4 °F 46.4 °F 72% 29.94 in 10.0 mi South 5.8 mph - N/A   Clear
3:57 AM 53.6 °F 46.4 °F 77% 29.94 in 10.0 mi South 5.8 mph - N/A   Clear
4:17 AM 53.6 °F 46.4 °F 77% 29.95 in 10.0 mi South 4.6 mph - N/A   Clear
4:36 AM 53.6 °F 46.4 °F 77% 29.95 in 10.0 mi SSE 3.5 mph - N/A   Clear
4:57 AM 53.6 °F 46.4 °F 77% 29.96 in 10.0 mi South 4.6 mph - N/A   Clear
5:17 AM 51.8 °F 46.4 °F 82% 29.96 in 10.0 mi South 4.6 mph - N/A   Clear
5:36 AM 51.8 °F 46.4 °F 82% 29.96 in 10.0 mi SSE 4.6 mph - N/A   Clear
5:57 AM 51.8 °F 46.4 °F 82% 29.97 in 10.0 mi SSE 5.8 mph - N/A   Clear
6:16 AM 51.8 °F 46.4 °F 82% 29.97 in 10.0 mi SSE 5.8 mph - N/A   Clear
6:37 AM 51.8 °F 46.4 °F 82% 29.97 in 10.0 mi SSE 4.6 mph - N/A   Clear
6:57 AM 51.8 °F 46.4 °F 82% 29.97 in 10.0 mi SSE 3.5 mph - N/A   Clear
7:16 AM 51.8 °F 46.4 °F 82% 29.97 in 10.0 mi SSE 4.6 mph - N/A   Clear
7:37 AM 51.8 °F 46.4 °F 82% 29.98 in 10.0 mi SSE 3.5 mph - N/A   Clear
7:56 AM 51.8 °F 46.4 °F 82% 29.99 in 10.0 mi SSE 5.8 mph - N/A   Clear
8:17 AM 53.6 °F 48.2 °F 82% 29.99 in 10.0 mi South 5.8 mph - N/A   Clear
8:37 AM 53.6 °F 48.2 °F 82% 30.00 in 10.0 mi South 5.8 mph - N/A   Clear
8:56 AM 55.4 °F 50.0 °F 82% 30.00 in 10.0 mi South 5.8 mph - N/A   Clear
9:17 AM 57.2 °F 50.0 °F 77% 30.00 in 10.0 mi South 6.9 mph - N/A   Clear
9:37 AM 59.0 °F 50.0 °F 72% 30.00 in 10.0 mi South 6.9 mph - N/A   Clear
9:57 AM 59.0 °F 50.0 °F 72% 30.01 in 10.0 mi South 6.9 mph - N/A   Clear
10:17 AM 60.8 °F 50.0 °F 68% 30.01 in 10.0 mi South 6.9 mph - N/A   Clear
10:36 AM 62.6 °F 51.8 °F 68% 30.01 in 10.0 mi South 9.2 mph - N/A   Clear
11:17 AM 66.2 °F 51.8 °F 60% 30.01 in 10.0 mi SSW 11.5 mph 17.3 mph N/A   Clear
11:37 AM 66.2 °F 51.8 °F 60% 30.01 in 10.0 mi SSW 11.5 mph - N/A   Clear
11:57 AM 68.0 °F 51.8 °F 56% 30.01 in 10.0 mi South 12.7 mph - N/A   Clear
12:16 PM 68.0 °F 51.8 °F 56% 30.02 in 10.0 mi SSW 11.5 mph 17.3 mph N/A   Clear
12:37 PM 69.8 °F 51.8 °F 53% 30.01 in 10.0 mi South 9.2 mph 18.4 mph N/A   Clear
12:57 PM 69.8 °F 51.8 °F 53% 30.01 in 10.0 mi SSW 11.5 mph - N/A   Clear
1:17 PM 69.8 °F 51.8 °F 53% 30.01 in 10.0 mi SSW 11.5 mph 18.4 mph N/A   Clear
1:37 PM 71.6 °F 51.8 °F 50% 30.01 in 10.0 mi SSW 12.7 mph 19.6 mph N/A   Clear
1:56 PM 71.6 °F 51.8 °F 50% 30.01 in 10.0 mi South 10.4 mph 16.1 mph N/A   Clear
2:17 PM 71.6 °F 53.6 °F 53% 30.01 in 10.0 mi South 12.7 mph 17.3 mph N/A   Clear
2:37 PM 71.6 °F 53.6 °F 53% 30.00 in 10.0 mi South 10.4 mph - N/A   Clear
2:57 PM 71.6 °F 53.6 °F 53% 30.00 in 10.0 mi SSE 11.5 mph - N/A   Clear
3:17 PM 71.6 °F 53.6 °F 53% 30.00 in 10.0 mi South 12.7 mph - N/A   Clear
3:37 PM 71.6 °F 53.6 °F 53% 30.00 in 10.0 mi South 15.0 mph - N/A   Clear
3:57 PM 71.6 °F 53.6 °F 53% 30.00 in 10.0 mi South 10.4 mph - N/A   Clear
4:17 PM 71.6 °F 51.8 °F 50% 30.00 in 10.0 mi South 15.0 mph 21.9 mph N/A   Clear
4:37 PM 71.6 °F 51.8 °F 50% 30.00 in 10.0 mi South 12.7 mph - N/A   Clear
4:57 PM 71.6 °F 51.8 °F 50% 30.00 in 10.0 mi South 12.7 mph 18.4 mph N/A   Clear
5:17 PM 71.6 °F 51.8 °F 50% 30.00 in 10.0 mi South 12.7 mph - N/A   Clear
5:37 PM 71.6 °F 51.8 °F 50% 30.00 in 10.0 mi South 8.1 mph - N/A   Clear
5:57 PM 69.8 °F 51.8 °F 53% 30.00 in 10.0 mi South 5.8 mph - N/A   Clear
6:17 PM 68.0 °F 51.8 °F 56% 30.01 in 10.0 mi South 6.9 mph - N/A   Clear
6:37 PM 64.4 °F 51.8 °F 64% 30.01 in 10.0 mi South 4.6 mph - N/A   Clear
6:57 PM 64.4 °F 50.0 °F 59% 30.01 in 10.0 mi South 4.6 mph - N/A   Clear
7:17 PM 62.6 °F 50.0 °F 63% 30.01 in 10.0 mi Calm Calm - N/A   Clear
7:37 PM 62.6 °F 50.0 °F 63% 30.01 in 10.0 mi SSE 3.5 mph - N/A   Clear
7:57 PM 59.0 °F 50.0 °F 72% 30.02 in 10.0 mi Calm Calm - N/A   Clear
8:17 PM 57.2 °F 50.0 °F 77% 30.02 in 10.0 mi Calm Calm - N/A   Clear
8:37 PM 59.0 °F 50.0 °F 72% 30.02 in 10.0 mi SSE 3.5 mph - N/A   Clear
8:57 PM 55.4 °F 50.0 °F 82% 30.02 in 10.0 mi Calm Calm - N/A   Clear
9:17 PM 51.8 °F 50.0 °F 94% 30.03 in 10.0 mi Calm Calm - N/A   Clear
9:37 PM 51.8 °F 50.0 °F 94% 30.04 in 10.0 mi Calm Calm - N/A   Clear
9:57 PM 50.0 °F 50.0 °F 100% 30.04 in 10.0 mi Calm Calm - N/A   Clear
10:17 PM 51.8 °F 50.0 °F 94% 30.04 in 10.0 mi Calm Calm - N/A   Clear
10:37 PM 51.8 °F 48.2 °F 88% 30.05 in 10.0 mi Calm Calm - N/A   Clear
10:58 PM 50.0 °F 48.2 °F 94% 30.05 in 10.0 mi Calm Calm - N/A   Clear
11:17 PM 50.0 °F 46.4 °F 87% 30.05 in 10.0 mi Calm Calm - N/A   Clear
11:37 PM 50.0 °F 48.2 °F 94% 30.05 in 10.0 mi Calm Calm - N/A   Clear
11:56 PM 50.0 °F 48.2 °F 94% 30.06 in 10.0 mi Calm Calm - N/A   Clear